Location: Unspecified
(0.0000°N, 0.0000°E)
Time: 15:49:58
(UTC+02:00)

Cosmos 1072 Rocket - Visible Passes

Search period start: 27 September 2016 00:00
Search period end: 07 October 2016 00:00
Orbit: 948 x 1009 km, 82.9° (Epoch: 26 September)

Date Brightness Start Highest point End Pass type
(mag) Time Alt. Az. Time Alt. Az. Time Alt. Az.
27 Sep 8.1 07:02:50 10° ENE 07:04:11 11° E 07:05:32 10° E visible
27 Sep 4.5 20:04:00 10° S 20:10:07 63° E 20:16:08 10° NNE visible
28 Sep 7.2 07:25:17 10° NNE 07:30:27 26° E 07:35:38 10° SE visible
28 Sep 5.2 20:30:20 10° SSW 20:36:23 59° W 20:42:22 10° N visible
29 Sep 6.7 20:57:41 10° SW 21:02:39 26° W 21:07:35 10° NNW visible
30 Sep 7.8 21:28:23 10° W 21:28:56 10° W 21:29:27 10° W visible
01 Oct 7.2 06:59:20 10° NE 07:04:11 23° E 07:09:04 10° SE visible
01 Oct 5.0 20:03:59 10° S 20:10:06 68° W 20:16:08 10° N visible
02 Oct 5.7 07:24:20 10° NNE 07:30:28 51° E 07:36:39 10° SSE visible
02 Oct 6.6 20:31:08 10° SW 20:36:22 29° W 20:41:33 10° NNW visible
03 Oct 7.7 21:00:21 10° WSW 21:02:38 12° W 21:04:55 10° WNW visible
04 Oct 7.3 06:33:27 10° NE 06:37:56 20° E 06:42:26 10° SE visible
05 Oct 5.9 06:58:11 10° NNE 07:04:12 45° E 07:10:16 10° SSE visible
05 Oct 6.5 20:04:38 10° SSW 20:10:05 34° W 20:15:30 10° NNW visible
06 Oct 7.6 20:33:13 10° WSW 20:36:21 14° W 20:39:28 10° NW visible
